TimeMST,TemperatureF,Dew PointF,Humidity,Sea Level PressureIn,VisibilityMPH,Wind Direction,Wind SpeedMPH,Gust SpeedMPH,PrecipitationIn,Events,Conditions,WindDirDegrees,DateUTC
12:46 AM,15.8,12.2,86,30.28,2.0,East,4.6,-,N/A,,Mostly Cloudy,90,2013-01-25 07:46:00
12:48 AM,14.0,12.2,93,30.27,0.8,ESE,3.5,-,N/A,,Mostly Cloudy,120,2013-01-25 07:48:00
12:53 AM,15.1,12.9,91,30.36,0.2,ENE,4.6,-,N/A,Fog,Light Freezing Fog,60,2013-01-25 07:53:00
1:16 AM,15.8,15.8,100,30.27,2.5,ENE,3.5,-,N/A,,Mostly Cloudy,70,2013-01-25 08:16:00
1:19 AM,15.8,12.2,86,30.27,3.0,ENE,4.6,-,N/A,,Mostly Cloudy,60,2013-01-25 08:19:00
1:24 AM,15.8,12.2,86,30.27,1.8,ENE,5.8,-,N/A,,Mostly Cloudy,70,2013-01-25 08:24:00
1:32 AM,12.2,10.4,92,30.27,0.2,ENE,6.9,-,N/A,Fog,Light Freezing Fog,60,2013-01-25 08:32:00
1:49 AM,12.2,10.4,92,30.27,2.0,NE,5.8,-,N/A,,Overcast,50,2013-01-25 08:49:00
1:53 AM,14.0,12.0,92,30.35,8.0,NE,3.5,-,N/A,,Overcast,40,2013-01-25 08:53:00
2:53 AM,17.1,14.0,88,30.33,10.0,Calm,Calm,-,N/A,,Overcast,0,2013-01-25 09:53:00
3:53 AM,18.0,15.1,88,30.33,10.0,WNW,3.5,-,N/A,,Overcast,300,2013-01-25 10:53:00
4:53 AM,19.9,17.1,89,30.31,10.0,Calm,Calm,-,N/A,,Overcast,0,2013-01-25 11:53:00
5:53 AM,18.0,15.1,88,30.32,10.0,North,9.2,-,N/A,,Mostly Cloudy,360,2013-01-25 12:53:00
6:53 AM,15.1,12.9,91,30.37,10.0,South,4.6,-,N/A,,Overcast,190,2013-01-25 13:53:00
7:53 AM,18.0,14.0,84,30.35,10.0,Calm,Calm,-,N/A,,Overcast,0,2013-01-25 14:53:00
8:53 AM,18.0,16.0,92,30.37,10.0,Calm,Calm,-,N/A,,Overcast,0,2013-01-25 15:53:00
9:53 AM,23.0,19.0,85,30.37,10.0,Calm,Calm,-,N/A,,Overcast,0,2013-01-25 16:53:00
10:53 AM,26.1,19.9,78,30.35,10.0,East,3.5,-,N/A,,Overcast,90,2013-01-25 17:53:00
11:53 AM,30.0,21.9,72,30.32,10.0,ESE,3.5,-,N/A,,Overcast,110,2013-01-25 18:53:00
12:53 PM,32.0,23.0,69,30.28,10.0,Calm,Calm,-,N/A,,Mostly Cloudy,0,2013-01-25 19:53:00
1:53 PM,34.0,24.1,67,30.26,10.0,East,4.6,-,N/A,,Partly Cloudy,90,2013-01-25 20:53:00
2:53 PM,36.0,24.1,62,30.22,10.0,East,4.6,-,N/A,,Partly Cloudy,90,2013-01-25 21:53:00
3:53 PM,37.0,23.0,57,30.20,10.0,ENE,4.6,-,N/A,,Overcast,70,2013-01-25 22:53:00
4:53 PM,34.0,26.1,73,30.21,10.0,ENE,3.5,-,N/A,,Overcast,60,2013-01-25 23:53:00
5:53 PM,32.0,26.1,79,30.23,10.0,Calm,Calm,-,N/A,,Overcast,0,2013-01-26 00:53:00
6:53 PM,30.9,26.1,82,30.25,10.0,NE,3.5,-,N/A,,Overcast,40,2013-01-26 01:53:00
7:53 PM,30.0,25.0,82,30.23,10.0,East,5.8,-,N/A,,Overcast,80,2013-01-26 02:53:00
8:53 PM,28.9,24.1,82,30.22,10.0,Calm,Calm,-,N/A,,Overcast,0,2013-01-26 03:53:00
9:53 PM,28.9,23.0,78,30.19,10.0,Calm,Calm,-,N/A,,Overcast,0,2013-01-26 04:53:00
10:53 PM,24.1,19.9,84,30.20,10.0,Calm,Calm,-,N/A,,Overcast,0,2013-01-26 05:53:00
11:53 PM,26.1,21.9,84,30.15,10.0,East,4.6,-,N/A,,Overcast,90,2013-01-26 06:53:00